Alliance, NE

11:30 AM MDT on October 19, 2017 (GMT -0600)
Alliance Municipal

Weather History for KAIA - November, 2011

Change the Weather History Date:

Monday, November 28, 2011

  Actual Average Record
Temperature  
Mean Temperature 38 °F 27 °F  
Max Temperature 58 °F 43 °F 69 °F (1941)
Min Temperature 17 °F 12 °F -13 °F (1952)
Degree Days  
Heating Degree Days 27 38  
Month to date heating degree days 857 881  
Since 1 July heating degree days 1566 1723  
Cooling Degree Days 0 0  
Month to date cooling degree days 0 0  
Year to date cooling degree days 699 564  
Moisture  
Dew Point 20 °F    
Average Humidity 57    
Maximum Humidity 91    
Minimum Humidity 23    
Precipitation  
Precipitation 0.00 in 0.02 in 0.21 in (1928)
Month to date precipitation 0.08 0.43  
Year to date precipitation 19.23 15.32  
Sea Level Pressure  
Sea Level Pressure 30.23 in    
Wind  
Wind Speed 11 mph (NW)    
Max Wind Speed 32 mph    
Max Gust Speed 39 mph    
Visibility 10 miles    
Events      
T = Trace of Precipitation, MM = Missing Value Source: NWS Daily Summary

Daily Weather History Graph

Daily Weather History Graph

Search for Another Location

Airport or City:

Trip Planner

Search our weather history database for the weather conditions in past years. The results will help you decide how hot, cold, wet, or windy it might be!

Date:

Astronomy

Nov. 28, 2011 Rise Set
Actual Time 6:56 AM MST 4:21 PM MST
Civil Twilight 6:25 AM MST 4:52 PM MST
Nautical Twilight 5:50 AM MST 5:27 PM MST
Astronomical Twilight 5:17 AM MST 6:00 PM MST
Moon 10:06 AM MST (11/28) 8:11 PM MST (11/28)
Length of Visible Light 10h 27m
Length of Day
9h 25m
Waxing Crescent, 16% of the Moon is Illuminated
Nov 28
Waxing Crescent
Dec 2
First Quarter
Dec 10
Full
Dec 17
Last Quarter
Dec 24
New

Hourly Weather History & Observations

Time (MST) Temp. Windchill Dew Point Humidity Pressure Visibility Wind Dir Wind Speed Gust Speed Precip Events Conditions
12:53 AM 19.0 °F 8.2 °F 14.0 °F 81% 30.09 in 10.0 mi West 9.2 mph - N/A   Clear
1:53 AM 25.0 °F 14.2 °F 18.0 °F 75% 30.06 in 10.0 mi West 11.5 mph - N/A   Clear
2:53 AM 27.0 °F 20.5 °F 17.1 °F 66% 30.05 in 10.0 mi West 5.8 mph - N/A   Clear
3:53 AM 28.0 °F 20.8 °F 17.1 °F 63% 30.07 in 10.0 mi West 6.9 mph - N/A   Clear
4:53 AM 21.9 °F 12.5 °F 15.1 °F 75% 30.10 in 10.0 mi West 8.1 mph - N/A   Clear
5:53 AM 23.0 °F - 15.1 °F 72% 30.14 in 10.0 mi Calm Calm - N/A   Clear
6:53 AM 24.1 °F 19.7 °F 18.0 °F 77% 30.15 in 10.0 mi WSW 3.5 mph - N/A   Clear
7:53 AM 27.0 °F 20.5 °F 19.0 °F 72% 30.16 in 10.0 mi WNW 5.8 mph - N/A   Clear
8:53 AM 41.0 °F 36.4 °F 24.1 °F 51% 30.13 in 10.0 mi West 6.9 mph - N/A   Clear
9:53 AM 52.0 °F - 23.0 °F 32% 30.14 in 10.0 mi North 13.8 mph - N/A   Clear
10:53 AM 55.9 °F - 21.9 °F 27% 30.15 in 10.0 mi North 18.4 mph 33.4 mph N/A   Clear
11:53 AM 57.0 °F - 19.9 °F 24% 30.18 in 10.0 mi North 28.8 mph 35.7 mph N/A   Clear
12:53 PM 55.9 °F - 24.1 °F 29% 30.21 in 10.0 mi NNE 26.5 mph 33.4 mph N/A   Clear
1:53 PM 55.0 °F - 25.0 °F 31% 30.22 in 10.0 mi NNE 19.6 mph - N/A   Clear
2:53 PM 52.0 °F - 25.0 °F 35% 30.25 in 10.0 mi NNE 21.9 mph 31.1 mph N/A   Clear
3:53 PM 46.9 °F - 23.0 °F 39% 30.30 in 10.0 mi North 11.5 mph - N/A   Clear
4:53 PM 44.1 °F 37.7 °F 21.9 °F 42% 30.35 in 10.0 mi NNE 12.7 mph - N/A   Clear
5:53 PM 37.0 °F 31.6 °F 21.0 °F 52% 30.38 in 10.0 mi North 6.9 mph - N/A   Clear
6:53 PM 37.0 °F 29.8 °F 24.1 °F 59% 30.40 in 10.0 mi NNE 10.4 mph - N/A   Clear
7:53 PM 30.9 °F 23.5 °F 21.9 °F 69% 30.43 in 10.0 mi North 8.1 mph - N/A   Clear
8:53 PM 28.0 °F 21.7 °F 21.0 °F 75% 30.40 in 10.0 mi NNW 5.8 mph - N/A   Clear
9:53 PM 19.9 °F 13.4 °F 17.1 °F 89% 30.40 in 10.0 mi West 4.6 mph - N/A   Clear
10:53 PM 19.9 °F 10.1 °F 16.0 °F 85% 30.40 in 10.0 mi West 8.1 mph - N/A   Clear
11:53 PM 21.2 °F 12.6 °F 17.6 °F 86% 30.35 in 10.0 mi WNW 6.9 mph - N/A   Clear